Simultaneous Nadir Overpasses (SNOs) Predictions

Prediction of SNOs between AQUA and NOAA-19 Satellite Orbit:

Table of predicted SNOs for the next 14.0 days since TLE Epoch: 6/29/2020
Index Date (AQUA) Time (AQUA) Lat,Lon (AQUA) SZA (AQUA ) Date (NOAA-19) Time (NOAA-19) Lat,Lon (NOAA-19) SZA (NOAA-19 ) Distance(km) Time Diff (sec)
1 07/01/2020 06:47:43 79.70, 49.83 58.01 07/01/2020 06:46:54 79.70, 49.84 58.03 0.43 49
2 07/01/2020 07:37:10 -79.72,-142.66 121.96 07/01/2020 07:37:58 -79.73,-142.55 121.98 2.60 48
3 07/03/2020 12:21:26 -79.68, 146.53 121.84 07/03/2020 12:20:17 -79.68, 146.37 121.80 3.23 69
4 07/03/2020 13:10:53 79.70, -45.96 58.20 07/03/2020 13:11:11 79.70, -46.08 58.21 2.39 18
5 07/05/2020 18:44:37 -79.72, 50.45 121.56 07/05/2020 18:44:34 -79.69, 50.52 121.59 3.72 3
6 07/08/2020 00:18:18 79.67, 147.40 58.62 07/08/2020 00:17:44 79.70, 147.39 58.65 2.88 34
7 07/08/2020 01:07:46 -79.73, -45.36 121.30 07/08/2020 01:08:50 -79.70, -45.35 121.35 2.77 64
8 07/10/2020 05:52:02 -79.70,-116.22 121.07 07/10/2020 05:51:08 -79.67,-116.22 121.07 3.44 54
9 07/10/2020 06:41:29 79.71, 51.29 58.97 07/10/2020 06:42:01 79.70, 51.44 58.93 3.33 32
